Middletown, PA

6:14 PM EDT on October 20, 2017 (GMT -0400)
Harrisburg International

Weather History for KMDT - February, 2013

Change the Weather History Date:

Friday, February 1, 2013

  Actual Average Record
Temperature  
Mean Temperature 24 °F 30 °F  
Max Temperature 29 °F 38 °F 70 °F (1989)
Min Temperature 19 °F 23 °F -1 °F (1920)
Degree Days  
Heating Degree Days 41 35  
Month to date heating degree days 41 35  
Since 1 July heating degree days 2908 3124  
Cooling Degree Days 0 0  
Month to date cooling degree days 0 0  
Year to date cooling degree days 0 0  
Moisture  
Dew Point 10 °F    
Average Humidity 48    
Maximum Humidity 58    
Minimum Humidity 37    
Precipitation  
Precipitation T in 0.09 in 2.36 in (2008)
Month to date precipitation T 0.09  
Year to date precipitation 3.21 2.97  
Snow  
Snow T in 0.40 in 7.90 in (1908)
Month to date snowfall T 0.4  
Since 1 July snowfall 9.8 14.9  
Snow Depth 0.00 in    
Sea Level Pressure  
Sea Level Pressure 30.05 in    
Wind  
Wind Speed 17 mph (WNW)    
Max Wind Speed 32 mph    
Max Gust Speed 41 mph    
Visibility 10 miles    
Events Snow    
T = Trace of Precipitation, MM = Missing Value Source: NWS Daily Summary

Daily Weather History Graph

Daily Weather History Graph

Search for Another Location

Airport or City:

Trip Planner

Search our weather history database for the weather conditions in past years. The results will help you decide how hot, cold, wet, or windy it might be!

Date:

Astronomy

Feb. 01, 2013 Rise Set
Actual Time 7:15 AM EST 5:26 PM EST
Civil Twilight 6:47 AM EST 5:54 PM EST
Nautical Twilight 6:14 AM EST 6:27 PM EST
Astronomical Twilight 5:42 AM EST 6:59 PM EST
Moon 11:31 PM EST (2/1) 9:47 AM EST (2/1)
Length of Visible Light 11h 07m
Length of Day
10h 10m
Waning Gibbous, 70% of the Moon is Illuminated
Feb 1
Waning Gibbous
Feb 3
Last Quarter
Feb 10
New
Feb 17
First Quarter
Feb 25
Full

Hourly Weather History & Observations

Time (EST) Temp. Windchill Dew Point Humidity Pressure Visibility Wind Dir Wind Speed Gust Speed Precip Events Conditions
12:56 AM 28.4 °F 21.2 °F 12.2 °F 51% 29.83 in 10.0 mi West 6.9 mph - N/A   Partly Cloudy
1:56 AM 28.0 °F 19.3 °F 14.0 °F 56% 29.83 in 10.0 mi SSW 9.2 mph - N/A   Partly Cloudy
2:56 AM 28.0 °F 18.6 °F 15.1 °F 58% 29.84 in 10.0 mi SW 10.4 mph - N/A   Mostly Cloudy
3:56 AM 28.0 °F 18.1 °F 15.1 °F 58% 29.84 in 10.0 mi SW 11.5 mph - N/A   Overcast
4:56 AM 26.6 °F 21.2 °F 12.2 °F 55% 29.84 in 10.0 mi NNW 4.6 mph - N/A   Overcast
5:56 AM 27.0 °F 17.3 °F 17.1 °F 66% 29.87 in 9.0 mi West 10.4 mph - 0.00 in Snow Light Snow
6:16 AM 26.6 °F 15.2 °F 17.6 °F 69% 29.85 in 9.0 mi West 13.8 mph - 0.00 in   Overcast
6:56 AM 28.0 °F 16.5 °F 16.0 °F 61% 29.88 in 10.0 mi WNW 15.0 mph - 0.00 in   Overcast
7:56 AM 26.1 °F 11.0 °F 12.9 °F 58% 29.93 in 10.0 mi NW 24.2 mph 31.1 mph N/A   Overcast
8:56 AM 25.0 °F 9.9 °F 6.1 °F 45% 29.97 in 10.0 mi NW 23.0 mph 34.5 mph N/A   Scattered Clouds
9:56 AM 27.0 °F 12.5 °F 8.1 °F 45% 30.00 in 10.0 mi WNW 23.0 mph 31.1 mph N/A   Scattered Clouds
10:56 AM 27.0 °F 11.9 °F 8.1 °F 45% 30.03 in 10.0 mi WNW 25.3 mph 32.2 mph N/A   Scattered Clouds
11:56 AM 27.0 °F 11.9 °F 3.9 °F 37% 30.04 in 10.0 mi NW 25.3 mph 34.5 mph N/A   Scattered Clouds
12:56 PM 27.0 °F 12.2 °F 7.0 °F 43% 30.07 in 10.0 mi WNW 24.2 mph 33.4 mph N/A   Mostly Cloudy
1:56 PM 28.0 °F 13.9 °F 8.1 °F 43% 30.09 in 10.0 mi WNW 23.0 mph 32.2 mph N/A   Mostly Cloudy
2:56 PM 26.1 °F 10.7 °F 6.1 °F 43% 30.11 in 10.0 mi WNW 25.3 mph 36.8 mph N/A   Mostly Cloudy
3:56 PM 25.0 °F 10.6 °F 5.0 °F 43% 30.14 in 10.0 mi WNW 20.7 mph 33.4 mph N/A   Mostly Cloudy
4:56 PM 24.1 °F 9.0 °F 7.0 °F 48% 30.17 in 10.0 mi WNW 21.9 mph 31.1 mph N/A   Scattered Clouds
5:56 PM 24.8 °F 10.7 °F 8.6 °F 50% 30.20 in 10.0 mi WNW 19.6 mph 27.6 mph N/A   Scattered Clouds
6:56 PM 21.9 °F 8.2 °F 8.1 °F 55% 30.25 in 10.0 mi West 16.1 mph 21.9 mph N/A   Partly Cloudy
7:56 PM 21.9 °F 8.7 °F 8.1 °F 55% 30.27 in 10.0 mi West 15.0 mph 24.2 mph N/A   Partly Cloudy
8:56 PM 21.0 °F 9.3 °F 7.0 °F 55% 30.29 in 10.0 mi West 11.5 mph 19.6 mph N/A   Clear
9:56 PM 19.9 °F 6.2 °F 6.1 °F 55% 30.31 in 10.0 mi WNW 15.0 mph 20.7 mph N/A   Partly Cloudy
10:56 PM 19.9 °F 7.9 °F 6.1 °F 55% 30.33 in 10.0 mi WNW 11.5 mph - N/A   Clear
11:56 PM 19.0 °F 6.8 °F 6.1 °F 57% 30.34 in 10.0 mi West 11.5 mph - N/A   Clear